TimePST,TemperatureF,Dew PointF,Humidity,Sea Level PressureIn,VisibilityMPH,Wind Direction,Wind SpeedMPH,Gust SpeedMPH,PrecipitationIn,Events,Conditions,WindDirDegrees,DateUTC
12:53 AM,37.9,34.0,86,30.27,10.0,Calm,Calm,-,N/A,,Clear,0,2012-11-11 08:53:00
1:53 AM,36.0,33.1,89,30.28,10.0,Calm,Calm,-,N/A,,Clear,0,2012-11-11 09:53:00
2:53 AM,36.0,33.1,89,30.29,10.0,Calm,Calm,-,N/A,,Clear,0,2012-11-11 10:53:00
3:53 AM,35.1,32.0,89,30.29,10.0,Calm,Calm,-,N/A,,Clear,0,2012-11-11 11:53:00
4:53 AM,36.0,33.1,89,30.30,8.0,Calm,Calm,-,N/A,,Clear,0,2012-11-11 12:53:00
6:04 AM,33.8,32.0,93,30.32,8.0,Calm,Calm,-,N/A,,Clear,0,2012-11-11 14:04:00
6:22 AM,33.8,32.0,93,30.33,5.0,Calm,Calm,-,N/A,,Clear,0,2012-11-11 14:22:00
6:53 AM,34.0,30.9,89,30.35,10.0,Calm,Calm,-,N/A,,Clear,0,2012-11-11 14:53:00
7:53 AM,39.0,35.1,86,30.37,10.0,Calm,Calm,-,N/A,,Clear,0,2012-11-11 15:53:00
8:53 AM,46.0,36.0,68,30.39,10.0,NE,4.6,-,N/A,,Clear,40,2012-11-11 16:53:00
9:53 AM,50.0,33.1,52,30.40,10.0,North,5.8,-,N/A,,Clear,360,2012-11-11 17:53:00
10:53 AM,52.0,34.0,50,30.40,10.0,NNW,4.6,-,N/A,,Clear,330,2012-11-11 18:53:00
11:53 AM,53.1,35.1,50,30.39,10.0,Variable,4.6,-,N/A,,Clear,0,2012-11-11 19:53:00
12:53 PM,55.9,35.1,45,30.37,10.0,North,4.6,-,N/A,,Clear,10,2012-11-11 20:53:00
1:53 PM,57.0,34.0,42,30.36,10.0,Variable,4.6,-,N/A,,Clear,0,2012-11-11 21:53:00
2:53 PM,57.9,33.1,39,30.35,10.0,Calm,Calm,-,N/A,,Clear,0,2012-11-11 22:53:00
3:53 PM,57.0,32.0,39,30.35,10.0,WNW,3.5,-,N/A,,Clear,300,2012-11-11 23:53:00
4:53 PM,53.6,33.8,47,30.35,10.0,NNW,3.5,-,N/A,,Clear,330,2012-11-12 00:53:00
5:53 PM,46.9,36.0,66,30.36,10.0,Calm,Calm,-,N/A,,Clear,0,2012-11-12 01:53:00
6:53 PM,45.0,36.0,71,30.37,10.0,Calm,Calm,-,N/A,,Clear,0,2012-11-12 02:53:00
7:53 PM,43.0,35.1,74,30.38,10.0,Calm,Calm,-,N/A,,Clear,0,2012-11-12 03:53:00
8:53 PM,41.0,35.1,79,30.38,10.0,Calm,Calm,-,N/A,,Clear,0,2012-11-12 04:53:00
9:53 PM,39.9,35.1,83,30.39,10.0,Calm,Calm,-,N/A,,Clear,0,2012-11-12 05:53:00
10:53 PM,39.0,35.1,86,30.40,9.0,Calm,Calm,-,N/A,,Clear,0,2012-11-12 06:53:00
11:53 PM,39.9,36.0,86,30.40,7.0,Calm,Calm,-,N/A,,Clear,0,2012-11-12 07:53:00